Yoho Park AWS, British Columbia

7:11 AM MST on December 05, 2016 (GMT -0700)
Yoho Park AWS

Weather History for 71786 - March, 2013

Change the Weather History Date:

Wednesday, March 13, 2013

  Actual Average Record
Temperature  
Mean Temperature 29 °F -  
Max Temperature 33 °F - - ()
Min Temperature 25 °F - - ()
Degree Days  
Heating Degree Days 36    
Moisture  
Dew Point 29 °F    
Average Humidity 97    
Maximum Humidity 100    
Minimum Humidity 92    
Precipitation  
Precipitation 0.00 in - - ()
Sea Level Pressure  
Sea Level Pressure 30.02 in    
Wind  
Wind Speed 12 mph ()    
Max Wind Speed 16 mph    
Max Gust Speed -    
T = Trace of Precipitation, MM = Missing Value Source: Averaged Metar Reports

Daily Weather History Graph

Daily Weather History Graph

Search for Another Location

Airport or City:

Trip Planner

Search our weather history database for the weather conditions in past years. The results will help you decide how hot, cold, wet, or windy it might be!

Date:

Astronomy

Mar. 13, 2013 Rise Set
Actual Time 8:03 AM MDT 7:47 PM MDT
Civil Twilight 7:29 AM MDT 8:20 PM MDT
Nautical Twilight 6:51 AM MDT 8:59 PM MDT
Astronomical Twilight 6:11 AM MDT 9:39 PM MDT
Moon 8:27 AM MDT (3/13) 10:30 PM MDT (3/13)
Length of Visible Light 12h 50m
Length of Day
11h 44m
Waxing Crescent, 4% of the Moon is Illuminated
Mar 13
Waxing Crescent
Mar 19
First Quarter
Mar 27
Full
Apr 2
Last Quarter
Apr 10
New

Hourly Weather History & Observations

Time (MDT) Temp. Windchill Dew Point Humidity Pressure Visibility Wind Dir Wind Speed Gust Speed Precip Events Conditions
12:00 AM 25 °F - 24 °F 95% 30.02 in - West 15.0 mph - -  
12:00 AM 25.2 °F 12.9 °F 24.1 °F 96% 30.02 in - West 15.0 mph - N/A   Unknown
1:00 AM 25.0 °F 16.3 °F 23.9 °F 96% 29.99 in - West 8.1 mph - N/A   Unknown
2:00 AM 25.9 °F 15.3 °F 25.0 °F 96% 29.97 in - West 11.5 mph - N/A   Unknown
4:00 AM 26.6 °F 14.7 °F 25.7 °F 96% 29.95 in - West 15.0 mph - N/A   Unknown
5:00 AM 27.1 °F 14.9 °F 26.2 °F 96% 29.92 in - West 16.1 mph - N/A   Unknown
6:00 AM 28 °F - 27 °F 95% 29.95 in - West 15.0 mph - -  
6:00 AM 28.0 °F 16.5 °F 27.1 °F 96% 29.95 in - West 15.0 mph - N/A   Unknown
7:00 AM 28.4 °F 16.6 °F 27.7 °F 97% 29.95 in - West 16.1 mph - N/A   Unknown
8:00 AM 28.9 °F 17.3 °F 28.2 °F 97% 29.97 in - West 16.1 mph - N/A   Unknown
9:00 AM 29.5 °F 18.8 °F 28.8 °F 97% 29.98 in - West 13.8 mph - N/A   Unknown
10:00 AM 30.4 °F 19.5 °F 29.7 °F 97% 29.99 in - West 15.0 mph - N/A   Unknown
11:00 AM 31.5 °F 20.5 °F 30.7 °F 97% 30.00 in - West 16.1 mph - N/A   Unknown
12:00 PM 32 °F - 31 °F 96% 30.02 in - West 16.1 mph - -  
12:00 PM 32.0 °F 21.2 °F 31.3 °F 97% 30.02 in - West 16.1 mph - N/A   Unknown
1:00 PM 33.1 °F 23.9 °F 31.6 °F 94% 30.04 in - West 12.7 mph - N/A   Unknown
2:00 PM 33.4 °F 23.9 °F 31.3 °F 92% 30.04 in - WSW 13.8 mph - N/A   Unknown
3:00 PM 33.3 °F 24.6 °F 31.5 °F 93% 30.06 in - WSW 11.5 mph - N/A   Unknown
4:00 PM 33.1 °F 24.4 °F 31.6 °F 94% 30.08 in - West 11.5 mph - N/A   Unknown
5:00 PM 31.3 °F 22.7 °F 31.8 °F 100% 30.09 in - West 10.4 mph - N/A   Unknown
6:00 PM 33 °F - 32 °F 94% 30.10 in - West 11.5 mph - -  
6:00 PM 31.5 °F 22.3 °F 32.0 °F 100% 30.10 in - West 11.5 mph - N/A   Unknown
7:00 PM 31.5 °F 22.3 °F 32.0 °F 100% 30.09 in - West 11.5 mph - N/A   Unknown
8:00 PM 32.0 °F 22.5 °F 31.5 °F 98% 30.10 in - West 12.7 mph - N/A   Unknown
9:00 PM 31.6 °F 23.1 °F 31.8 °F 100% 30.09 in - West 10.4 mph - N/A   Unknown
10:00 PM 31.8 °F 22.3 °F 31.6 °F 99% 30.09 in - West 12.7 mph - N/A   Unknown
11:00 PM 31.8 °F 21.8 °F 31.6 °F 99% 30.08 in - West 13.8 mph - N/A   Unknown